This demonstration page uses our WeatherBlox Daily Observations layout. Learn more.

38.80484, -77.04692

Hourly Observations for July 11, 2020

Temp ( °F °C ) Dew Point ( °F °C ) Humidity (%) Winds ( mph kmh ) Pressure ( in mb ) Visibility ( mi km ) Precip ( " mm )
12:52 am 00:52 Cloudy 82 27.8 73 22.8 74 74 Calm 29.75 1007 10 16.0934 0 0
1:48 am 01:48 Mostly Cloudy 81 27 73 23 79 79 NNW 5 7 29.75 1007 10 16.0934 0 0
1:52 am 01:52 Mostly Cloudy 80 26.7 73 22.8 79 79 NNW 5 7 29.74 1007 10 16.0934 0 0
2:24 am 02:24 Partly Cloudy 79 26.1 73 22.8 82 82 S 5 7 29.73 1007 10 16.0934 0 0
2:52 am 02:52 Mostly Cloudy 79 26.1 70 21.1 74 74 SW 9 15 29.72 1007 10 16.0934 0 0
3:52 am 03:52 Cloudy 78 25.6 69 20.6 74 74 SW 10 17 29.71 1006 10 16.0934 0 0
4:52 am 04:52 Cloudy 77 25 69 20.6 77 77 WSW 9 15 29.71 1006 10 16.0934 0 0
5:52 am 05:52 Cloudy 76 24.4 69 20.6 79 79 WSW 6 9 29.71 1006 10 16.0934 0 0
6:52 am 06:52 Cloudy 77 25 69 20.6 77 77 SSW 7 11 29.72 1006 10 16.0934 0 0
7:52 am 07:52 Mostly Cloudy 78 25.6 69 20.6 74 74 SSW 7 11 29.72 1007 10 16.0934 0 0
8:52 am 08:52 Mostly Cloudy 79 26.1 72 22.2 79 79 S 8 13 29.74 1007 10 16.0934 0 0
9:52 am 09:52 Mostly Cloudy 80 26.7 73 22.8 79 79 S 7 11 29.74 1007 10 16.0934 0 0
10:52 am 10:52 Mostly Cloudy 82 27.8 73 22.8 74 74 SSE 5 7 29.74 1007 10 16.0934 0 0
11:52 am 11:52 Mostly Cloudy 88 31.1 67 19.4 50 50 W 12 19 29.75 1007 10 16.0934 0 0
12:52 pm 12:52 Mostly Cloudy 88 31.1 68 20 52 52 W 8 13 29.73 1007 10 16.0934 0 0
1:52 pm 13:52 Mostly Cloudy 91 32.8 69 20.6 49 49 W 13 20 29.72 1007 9 14.48406 0 0
2:52 pm 14:52 Partly Cloudy 91 32.8 64 17.8 41 41 WNW 15 24 29.7 1006 10 16.0934 0 0
3:52 pm 15:52 Partly Cloudy 92 33.3 61 16.1 36 36 WNW 14 22 29.7 1006 10 16.0934 0 0
4:52 pm 16:52 Partly Cloudy 91 32.8 62 16.7 38 38 W 17 28 29.7 1006 10 16.0934 0 0
5:52 pm 17:52 Mostly Cloudy 89 31.7 63 17.2 42 42 WNW 17 28 29.71 1006 10 16.0934 0 0
6:52 pm 18:52 Mostly Cloudy 87 30.6 63 17.2 45 45 WNW 14 22 29.73 1007 8 12.87472 0 0
7:52 pm 19:52 Mostly Cloudy 86 30 65 18.3 49 49 NNW 13 20 29.75 1007 10 16.0934 0 0
8:52 pm 20:52 Mostly Cloudy 84 28.9 65 18.3 53 53 NNW 9 15 29.75 1008 10 16.0934 0 0
9:52 pm 21:52 Mostly Cloudy 83 28.3 65 18.3 55 55 NNW 6 9 29.78 1008 10 16.0934 0 0
10:52 pm 22:52 Partly Cloudy 82 27.8 65 18.3 56 56 W 5 7 29.78 1009 10 16.0934 0 0
11:52 pm 23:52 Partly Cloudy 81 27.2 62 16.7 53 53 WNW 7 11 29.79 1009 10 16.0934 0 0

Powered by AerisWeather